tititudorancea.com
Station Historical Data
Daily Summary for April 7, 2018 Units:  Metric    English   Both
« Previous Day
Next Day »
Daily Weekly Monthly Yearly Custom
  High: Low: Average:
Temperature: -17.8 °C 4 °C 14.7 °C
Dew Point: -17.8 °C 2.7 °C 6.7 °C
Humidity: Humidity % 33 % 63 %
Wind Speed: 0 km/h 0 km/h 1.8 km/h
Wind Gust: 0 km/h - -
Wind:- - West
Pressure: 0 hPa 1016.5 hPa -
Precipitation: 0 mm    
Historical Graphs
 
 
Ararat weather Find more about Weather in Ararat, AU


 



 


Tabular Data for April 7, 2018
Time Temperature Dew Point Pressure Wind Wind Speed Wind Gust Humidity Rainfall Rate (Hourly)
-17.8 °C -17.8 °C 0 hPa Calm     Humidity % 0 mm
00:03 11.2 °C 6.2 °C 1019.9 hPa South 2.3 km/h 3.7 km/h 71 % 0 mm
00:08 11.2 °C 6.1 °C 1019.9 hPa Calm     71 % 0 mm
00:13 11.1 °C 6 °C 1019.9 hPa Calm     71 % 0 mm
00:18 10.9 °C 5.8 °C 1019.5 hPa Calm     71 % 0 mm
00:23 10.8 °C 5.9 °C 1019.5 hPa South 1 km/h 1.9 km/h 72 % 0 mm
00:28 10.6 °C 5.9 °C 1019.5 hPa South 1.1 km/h 1.9 km/h 73 % 0 mm
00:33 10.4 °C 5.8 °C 1019.5 hPa South 0.2 km/h 1.9 km/h 73 % 0 mm
00:38 10.3 °C 5.9 °C 1019.5 hPa South 3.7 km/h 5.6 km/h 74 % 0 mm
00:43 10.3 °C 6.1 °C 1019.5 hPa South 2.9 km/h 5.6 km/h 75 % 0 mm
00:48 10.2 °C 5.7 °C 1019.5 hPa South 0.3 km/h 1.9 km/h 74 % 0 mm
00:53 10.1 °C 6.1 °C 1019.5 hPa Calm   1.9 km/h 76 % 0 mm
00:58 10.1 °C 6 °C 1019.5 hPa Calm     76 % 0 mm
01:03 9.9 °C 5.8 °C 1019.5 hPa South 1.4 km/h 3.7 km/h 76 % 0 mm
01:08 9.7 °C 5.6 °C 1019.5 hPa Calm     76 % 0 mm
01:13 9.6 °C 5.9 °C 1019.5 hPa Calm     78 % 0 mm
01:18 9.4 °C 5.9 °C 1019.5 hPa Calm     79 % 0 mm
01:23 9.3 °C 5.9 °C 1019.2 hPa Calm     79 % 0 mm
01:28 9.2 °C 5.8 °C 1019.5 hPa Calm     79 % 0 mm
01:33 9.1 °C 5.7 °C 1019.2 hPa Calm     79 % 0 mm
01:38 9.1 °C 5.9 °C 1019.5 hPa Calm     81 % 0 mm
01:43 8.9 °C 5.8 °C 1019.5 hPa Calm     81 % 0 mm
01:48 8.9 °C 5.8 °C 1019.5 hPa Calm     81 % 0 mm
01:53 8.8 °C 5.7 °C 1019.5 hPa Calm     81 % 0 mm
01:58 8.7 °C 5.8 °C 1019.5 hPa Calm     82 % 0 mm
02:03 8.6 °C 5.9 °C 1019.5 hPa Calm     83 % 0 mm
02:08 8.5 °C 5.8 °C 1019.5 hPa Calm     83 % 0 mm
02:13 8.3 °C 5.6 °C 1019.5 hPa Calm     83 % 0 mm
02:18 8.1 °C 5.2 °C 1019.5 hPa Calm     82 % 0 mm
02:23 7.9 °C 5.2 °C 1019.5 hPa Calm     83 % 0 mm
02:28 7.7 °C 4.9 °C 1019.2 hPa Calm     83 % 0 mm
02:33 7.5 °C 4.8 °C 1019.5 hPa Calm     83 % 0 mm
02:38 7.3 °C 4.6 °C 1019.5 hPa Calm     83 % 0 mm
02:43 7.2 °C 4.7 °C 1019.2 hPa Calm     84 % 0 mm
02:48 7.1 °C 4.6 °C 1019.2 hPa Calm     84 % 0 mm
02:53 7 °C 4.7 °C 1019.2 hPa Calm     85 % 0 mm
02:58 6.9 °C 4.6 °C 1019.2 hPa Calm     85 % 0 mm
03:03 6.8 °C 4.5 °C 1019.2 hPa Calm     85 % 0 mm
03:08 6.7 °C 4.4 °C 1019.2 hPa Calm     85 % 0 mm
03:13 6.6 °C 4.2 °C 1019.2 hPa Calm     85 % 0 mm
03:18 6.4 °C 4.3 °C 1019.2 hPa Calm     86 % 0 mm
03:23 6.4 °C 4.2 °C 1019.2 hPa Calm     86 % 0 mm
03:28 6.2 °C 4.1 °C 1019.2 hPa Calm     86 % 0 mm
03:33 6.2 °C 4 °C 1019.2 hPa Calm     86 % 0 mm
03:38 6.2 °C 4.2 °C 1019.2 hPa Calm     87 % 0 mm
03:43 6.1 °C 4.1 °C 1019.2 hPa Calm     87 % 0 mm
03:48 6 °C 4 °C 1018.8 hPa Calm     87 % 0 mm
03:53 5.9 °C 3.9 °C 1019.2 hPa Calm     87 % 0 mm
03:58 5.8 °C 3.8 °C 1019.2 hPa Calm     87 % 0 mm
04:03 5.7 °C 3.7 °C 1019.2 hPa Calm     87 % 0 mm
04:08 5.7 °C 3.8 °C 1019.2 hPa Calm     88 % 0 mm
04:13 5.6 °C 3.8 °C 1019.2 hPa Calm     88 % 0 mm
04:18 5.5 °C 3.7 °C 1019.2 hPa Calm     88 % 0 mm
04:23 5.5 °C 3.7 °C 1019.2 hPa Calm     88 % 0 mm
04:28 5.4 °C 3.6 °C 1019.2 hPa Calm     88 % 0 mm
04:33 5.3 °C 3.5 °C 1019.2 hPa Calm     88 % 0 mm
04:38 5.2 °C 3.4 °C 1019.2 hPa Calm     88 % 0 mm
04:43 5.1 °C 3.3 °C 1019.2 hPa Calm     88 % 0 mm
04:48 5.1 °C 3.4 °C 1019.2 hPa Calm     89 % 0 mm
04:53 5 °C 3.3 °C 1019.2 hPa Calm     89 % 0 mm
04:58 4.9 °C 3.3 °C 1019.2 hPa Calm     89 % 0 mm
05:03 4.9 °C 3.2 °C 1019.2 hPa Calm     89 % 0 mm
05:08 4.9 °C 3.4 °C 1019.2 hPa Calm     90 % 0 mm
05:13 4.8 °C 3.3 °C 1019.2 hPa Calm     90 % 0 mm
05:18 4.8 °C 3.3 °C 1019.5 hPa Calm     90 % 0 mm
05:23 4.7 °C 3.2 °C 1019.5 hPa Calm     90 % 0 mm
05:28 4.6 °C 2.9 °C 1019.5 hPa Calm     89 % 0 mm
05:33 4.5 °C 3 °C 1019.5 hPa Calm     90 % 0 mm
05:38 4.4 °C 2.9 °C 1019.5 hPa Calm     90 % 0 mm
05:43 4.4 °C 2.9 °C 1019.5 hPa Calm     90 % 0 mm
05:48 4.4 °C 2.9 °C 1019.5 hPa Calm     90 % 0 mm
05:53 4.5 °C 3.2 °C 1019.5 hPa Calm     91 % 0 mm
05:58 4.4 °C 3.1 °C 1019.5 hPa Calm     91 % 0 mm
06:03 4.5 °C 3.2 °C 1019.5 hPa Calm     91 % 0 mm
06:08 4.4 °C 2.9 °C 1019.9 hPa Calm     90 % 0 mm
06:13 4.4 °C 3.1 °C 1019.9 hPa Calm     91 % 0 mm
06:18 4.3 °C 2.8 °C 1019.9 hPa Calm     90 % 0 mm
06:23 4.2 °C 2.7 °C 1019.9 hPa Calm     90 % 0 mm
06:28 4.2 °C 2.8 °C 1019.9 hPa Calm     91 % 0 mm
06:33 4.1 °C 2.8 °C 1019.9 hPa Calm     91 % 0 mm
06:38 4 °C 2.7 °C 1019.9 hPa Calm     91 % 0 mm
06:43 4 °C 2.7 °C 1019.9 hPa Calm     91 % 0 mm
06:48 4.1 °C 2.7 °C 1019.9 hPa Calm     91 % 0 mm
06:53 4.1 °C 2.7 °C 1019.9 hPa Calm     91 % 0 mm
06:58 4.1 °C 2.7 °C 1019.9 hPa Calm     91 % 0 mm
07:03 4.1 °C 2.7 °C 1019.9 hPa Calm     91 % 0 mm
07:08 4 °C 2.7 °C 1019.9 hPa Calm     91 % 0 mm
07:13 4.2 °C 3 °C 1020.2 hPa Calm     92 % 0 mm
07:18 4.5 °C 3.4 °C 1020.2 hPa Calm     93 % 0 mm
07:23 4.8 °C 3.7 °C 1020.2 hPa Calm     93 % 0 mm
07:28 5.1 °C 4.1 °C 1020.2 hPa Calm     93 % 0 mm
07:33 5.6 °C 4.7 °C 1020.2 hPa Calm     94 % 0 mm
07:38 6 °C 4.9 °C 1020.2 hPa Calm     93 % 0 mm
07:43 6.5 °C 5.4 °C 1020.2 hPa Calm     93 % 0 mm
07:48 6.8 °C 5.6 °C 1020.2 hPa Calm     92 % 0 mm
07:53 7.3 °C 6.1 °C 1020.2 hPa Calm     92 % 0 mm
07:58 7.7 °C 6.3 °C 1020.2 hPa Calm     91 % 0 mm
08:03 8.3 °C 6.9 °C 1020.5 hPa Calm     91 % 0 mm
08:08 8.8 °C 7.4 °C 1020.5 hPa Calm     91 % 0 mm
08:13 9.4 °C 7.7 °C 1020.5 hPa Calm     89 % 0 mm
08:18 9.9 °C 8 °C 1020.5 hPa Calm     88 % 0 mm
08:23 10.6 °C 8.3 °C 1020.5 hPa Calm     86 % 0 mm
08:28 11.2 °C 8.4 °C 1020.5 hPa Calm     83 % 0 mm
08:33 11.7 °C 8.2 °C 1020.5 hPa Calm     79 % 0 mm
08:38 12 °C 8.1 °C 1020.5 hPa Calm     77 % 0 mm
08:43 12.3 °C 7.9 °C 1020.5 hPa Calm     75 % 0 mm
08:48 12.6 °C 8.1 °C 1020.5 hPa Calm   1.9 km/h 74 % 0 mm
08:53 13 °C 7.9 °C 1020.5 hPa Calm     71 % 0 mm
08:58 13.3 °C 8 °C 1020.5 hPa Calm   1.9 km/h 70 % 0 mm
09:03 13.8 °C 8.4 °C 1020.5 hPa Calm     70 % 0 mm
09:08 14.1 °C 8.3 °C 1020.5 hPa South 0.3 km/h 1.9 km/h 68 % 0 mm
09:13 14.3 °C 8 °C 1020.5 hPa South 1 km/h 3.7 km/h 66 % 0 mm
09:18 14.4 °C 7.9 °C 1020.9 hPa South 1.8 km/h 3.7 km/h 65 % 0 mm
09:23 14.7 °C 8.2 °C 1020.9 hPa Calm     65 % 0 mm
09:28 15 °C 8.2 °C 1020.9 hPa Calm     64 % 0 mm
09:33 15.6 °C 8.3 °C 1020.9 hPa South 1.6 km/h 3.7 km/h 62 % 0 mm
09:38 15.7 °C 8.4 °C 1020.9 hPa South 2.9 km/h 5.6 km/h 62 % 0 mm
09:43 16.1 °C 8.6 °C 1020.9 hPa South 1.3 km/h 3.7 km/h 61 % 0 mm
09:48 16.6 °C 8.6 °C 1020.5 hPa South 7.4 km/h 9.3 km/h 59 % 0 mm
09:53 16.7 °C 8.4 °C 1020.5 hPa South 4.8 km/h 9.3 km/h 58 % 0 mm
09:58 16.9 °C 8.6 °C 1020.5 hPa South 6.1 km/h 8 km/h 58 % 0 mm
10:03 17.1 °C 8.4 °C 1020.5 hPa South 1.3 km/h 7.4 km/h 57 % 0 mm
10:08 17.2 °C 8.6 °C 1020.5 hPa South 1.9 km/h 6.4 km/h 57 % 0 mm
10:13 17.6 °C 9 °C 1020.5 hPa South 2.4 km/h 3.7 km/h 57 % 0 mm
10:18 18.2 °C 9 °C 1020.5 hPa South 1 km/h 3.7 km/h 55 % 0 mm
10:23 18.4 °C 9.2 °C 1020.5 hPa South 2.1 km/h 6.4 km/h 55 % 0 mm
10:28 18.7 °C 8.9 °C 1020.2 hPa South 4.7 km/h 9.3 km/h 53 % 0 mm
10:33 18.7 °C 8.9 °C 1020.2 hPa South 2.7 km/h 7.4 km/h 53 % 0 mm
10:38 18.9 °C 9.2 °C 1020.2 hPa South 3.5 km/h 7.4 km/h 53 % 0 mm
10:43 19.1 °C 8.9 °C 1020.2 hPa South 5.6 km/h 9.3 km/h 52 % 0 mm
10:48 19.3 °C 9.4 °C 1020.2 hPa South 3.7 km/h 7.4 km/h 53 % 0 mm
10:53 19.7 °C 9.2 °C 1020.2 hPa South 2.7 km/h 11.3 km/h 51 % 0 mm
10:58 19.9 °C 9.2 °C 1020.2 hPa South 0.2 km/h 1.9 km/h 50 % 0 mm
11:03 20.3 °C 9.2 °C 1020.2 hPa South 2.7 km/h 7.4 km/h 49 % 0 mm
11:08 20.5 °C 9.4 °C 1019.9 hPa South 0.6 km/h 5.6 km/h 49 % 0 mm
11:13 20.7 °C 9 °C 1019.9 hPa South 5.8 km/h 9.3 km/h 47 % 0 mm
11:18 20.7 °C 9 °C 1019.9 hPa SSW 6 km/h 8 km/h 47 % 0 mm
11:23 20.8 °C 9.4 °C 1019.9 hPa Calm   1.9 km/h 48 % 0 mm
11:28 21.2 °C 9.1 °C 1019.9 hPa SSW 3.4 km/h 5.6 km/h 46 % 0 mm
11:33 21.3 °C 9.2 °C 1019.9 hPa NE 6.4 km/h 9.3 km/h 46 % 0 mm
11:38 20.9 °C 8.9 °C 1019.9 hPa NE 1.9 km/h 3.7 km/h 46 % 0 mm
11:43 20.8 °C 9.1 °C 1019.9 hPa NNW 6.8 km/h 9.3 km/h 47 % 0 mm
11:48 21.2 °C 9.1 °C 1019.5 hPa NNW 2.9 km/h 5.6 km/h 46 % 0 mm
11:53 21.4 °C 8.9 °C 1019.5 hPa NNW 3.9 km/h 9.3 km/h 45 % 0 mm
11:58 21.8 °C 9.7 °C 1019.5 hPa NNW 3.2 km/h 8 km/h 46 % 0 mm
12:03 22 °C 8.8 °C 1019.5 hPa NNW 1.9 km/h 5.6 km/h 43 % 0 mm
12:08 22.1 °C 9.3 °C 1019.5 hPa NNW 6.3 km/h 9.3 km/h 44 % 0 mm
12:13 22.1 °C 9.3 °C 1019.2 hPa NNW 4.2 km/h 5.6 km/h 44 % 0 mm
12:18 22.3 °C 9.4 °C 1019.2 hPa NNW 6.1 km/h 11.3 km/h 44 % 0 mm
12:23 22.2 °C 9.3 °C 1019.2 hPa NNW 5.3 km/h 8 km/h 44 % 0 mm
12:28 22.4 °C 9.2 °C 1019.2 hPa NNW 7.7 km/h 9.7 km/h 43 % 0 mm
12:33 22.4 °C 8.8 °C 1018.8 hPa NW 6.3 km/h 9.3 km/h 42 % 0 mm
12:38 22.4 °C 8.8 °C 1018.8 hPa NW 5.1 km/h 6.4 km/h 42 % 0 mm
12:43 22.4 °C 9.2 °C 1018.8 hPa NW 0.2 km/h 1.9 km/h 43 % 0 mm
12:48 23 °C 9.4 °C 1018.8 hPa WSW 10.5 km/h 18.5 km/h 42 % 0 mm
12:53 22.9 °C 8.9 °C 1018.5 hPa WSW 8.5 km/h 9.7 km/h 41 % 0 mm
12:58 22.8 °C 8.8 °C 1018.8 hPa WSW 6.4 km/h 14.8 km/h 41 % 0 mm
13:03 22.8 °C 8.8 °C 1018.5 hPa WSW 0.8 km/h 5.6 km/h 41 % 0 mm
13:08 23 °C 9.1 °C 1018.5 hPa WSW 1.6 km/h 3.2 km/h 41 % 0 mm
13:13 23.1 °C 8.8 °C 1018.5 hPa SW 6.8 km/h 13 km/h 40 % 0 mm
13:18 23.2 °C 8.4 °C 1018.5 hPa WSW 7.2 km/h 13 km/h 39 % 0 mm
13:23 23.1 °C 8.7 °C 1018.2 hPa WSW 7.6 km/h 9.3 km/h 40 % 0 mm
13:28 23.3 °C 8.9 °C 1018.2 hPa WSW 3.1 km/h 5.6 km/h 40 % 0 mm
13:33 23.5 °C 8.3 °C 1018.2 hPa WNW 10.8 km/h 14.8 km/h 38 % 0 mm
13:38 23.5 °C 8.3 °C 1018.2 hPa West 9.8 km/h 14.8 km/h 38 % 0 mm
13:43 23.6 °C 8.4 °C 1018.2 hPa West 7.9 km/h 14.8 km/h 38 % 0 mm
13:48 23.6 °C 8.4 °C 1018.2 hPa WSW 6.9 km/h 11.1 km/h 38 % 0 mm
13:53 23.5 °C 8.7 °C 1017.8 hPa West 8.4 km/h 13 km/h 39 % 0 mm
13:58 23.6 °C 8.4 °C 1017.8 hPa WSW 6.4 km/h 7.4 km/h 38 % 0 mm
14:03 23.8 °C 8.2 °C 1017.8 hPa WSW 3.1 km/h 4.8 km/h 37 % 0 mm
14:08 24.2 °C 8.6 °C 1017.5 hPa WSW 8 km/h 9.3 km/h 37 % 0 mm
14:13 24.1 °C 8.1 °C 1017.5 hPa WSW 6.9 km/h 9.3 km/h 36 % 0 mm
14:18 24 °C 8.4 °C 1017.5 hPa West 7.6 km/h 7.6 km/h 37 % 0 mm
14:23 24.2 °C 8.2 °C 1017.5 hPa West 4 km/h 9.3 km/h 36 % 0 mm
14:28 24.2 °C 8.2 °C 1017.2 hPa West 6.1 km/h 7.4 km/h 36 % 0 mm
14:33 24.2 °C 8.2 °C 1017.2 hPa West 6.8 km/h 9.3 km/h 36 % 0 mm
14:38 24.2 °C 8.2 °C 1017.2 hPa West 1.9 km/h 5.6 km/h 36 % 0 mm
14:43 24.3 °C 7.8 °C 1017.2 hPa West 10.5 km/h 14.8 km/h 35 % 0 mm
14:48 24.6 °C 8.1 °C 1017.2 hPa West 10.9 km/h 12.9 km/h 35 % 0 mm
14:54 24.8 °C 7.8 °C 1017.2 hPa West 10.1 km/h 14.8 km/h 34 % 0 mm
14:59 24.4 °C 7.6 °C 1017.2 hPa West 2.9 km/h 11.1 km/h 34 % 0 mm
15:04 24.5 °C 8.1 °C 1016.8 hPa West 6.1 km/h 9.7 km/h 35 % 0 mm
15:09 24.6 °C 8.1 °C 1016.8 hPa West 3.9 km/h 7.4 km/h 35 % 0 mm
15:14 24.8 °C 8.3 °C 1016.8 hPa West 4.2 km/h 5.6 km/h 35 % 0 mm
15:19 24.9 °C 7.6 °C 1016.8 hPa West 0.3 km/h 3.2 km/h 33 % 0 mm
15:24 25.1 °C 8.1 °C 1016.8 hPa West 8.9 km/h 11.1 km/h 34 % 0 mm
15:29 24.8 °C 7.4 °C 1016.8 hPa West 11.1 km/h 14.8 km/h 33 % 0 mm
15:34 24.6 °C 7.7 °C 1016.8 hPa West 5.8 km/h 9.7 km/h 34 % 0 mm
15:39 24.6 °C 8.1 °C 1016.8 hPa West 10 km/h 11.3 km/h 35 % 0 mm
15:44 24.8 °C 7.8 °C 1016.8 hPa North 6.4 km/h 8 km/h 34 % 0 mm
15:49 24.8 °C 7.4 °C 1016.8 hPa West 2.9 km/h 5.6 km/h 33 % 0 mm
15:54 24.8 °C 7.9 °C 1016.8 hPa West 3.4 km/h 5.6 km/h 34 % 0 mm
15:59 24.7 °C 7.7 °C 1016.5 hPa NW 4.7 km/h 9.3 km/h 34 % 0 mm
16:04 24.9 °C 7.9 °C 1016.5 hPa NW 7.7 km/h 11.1 km/h 34 % 0 mm
16:09 24.7 °C 7.8 °C 1016.5 hPa NW 8.9 km/h 11.1 km/h 34 % 0 mm
16:14 24.6 °C 7.7 °C 1016.8 hPa NW 1.9 km/h 5.6 km/h 34 % 0 mm
16:19 24.7 °C 7.7 °C 1016.8 hPa NW 4.7 km/h 5.6 km/h 34 % 0 mm
16:24 24.7 °C 7.7 °C 1016.5 hPa NW 0.5 km/h 3.7 km/h 34 % 0 mm
16:29 25 °C 7.6 °C 1016.5 hPa NW 2.7 km/h 5.6 km/h 33 % 0 mm
16:34 25.3 °C 7.9 °C 1016.5 hPa North 2.3 km/h 5.6 km/h 33 % 0 mm
16:39 25.3 °C 7.9 °C 1016.5 hPa NW 0.2 km/h 1.9 km/h 33 % 0 mm
16:44 25.4 °C 8 °C 1016.5 hPa North 3.7 km/h 5.6 km/h 33 % 0 mm
16:49 25.2 °C 7.7 °C 1016.5 hPa NNW 2.6 km/h 5.6 km/h 33 % 0 mm
16:54 24.8 °C 7.4 °C 1016.5 hPa Calm   1.9 km/h 33 % 0 mm
16:59 24.7 °C 7.7 °C 1016.5 hPa NNW 1.4 km/h 3.7 km/h 34 % 0 mm
17:04 24.7 °C 7.8 °C 1016.5 hPa Calm     34 % 0 mm
17:09 24.8 °C 7.9 °C 1016.5 hPa NNW 4.8 km/h 7.4 km/h 34 % 0 mm
17:14 24.8 °C 7.9 °C 1016.5 hPa NNW 6.8 km/h 8 km/h 34 % 0 mm
17:19 24.7 °C 7.7 °C 1016.5 hPa NNW 5.3 km/h 5.6 km/h 34 % 0 mm
17:24 24.6 °C 7.7 °C 1016.5 hPa Calm     34 % 0 mm
17:29 24.6 °C 7.7 °C 1016.5 hPa North 4.3 km/h 7.4 km/h 34 % 0 mm
17:34 24.4 °C 7.6 °C 1016.5 hPa NNW 3.7 km/h 5.6 km/h 34 % 0 mm
17:39 24.3 °C 7.9 °C 1016.5 hPa NNW 2.9 km/h 5.6 km/h 35 % 0 mm
17:44 24.2 °C 7.7 °C 1016.5 hPa NNW 2.1 km/h 3.7 km/h 35 % 0 mm
17:49 24 °C 7.6 °C 1016.5 hPa North 2.3 km/h 5.6 km/h 35 % 0 mm
17:54 23.8 °C 7.8 °C 1016.5 hPa NNW 1 km/h 5.6 km/h 36 % 0 mm
17:59 23.7 °C 7.8 °C 1016.8 hPa NNW 1 km/h 3.7 km/h 36 % 0 mm
18:04 23.6 °C 7.6 °C 1016.5 hPa NNW 1.1 km/h 3.7 km/h 36 % 0 mm
18:09 23.3 °C 7.8 °C 1016.8 hPa NNW 1.6 km/h 3.7 km/h 37 % 0 mm
18:14 22.9 °C 7.8 °C 1016.8 hPa Calm     38 % 0 mm
18:19 22.6 °C 7.9 °C 1016.8 hPa NNW 0.3 km/h 1.9 km/h 39 % 0 mm
18:24 22.1 °C 7.8 °C 1016.8 hPa Calm     40 % 0 mm
18:29 21.5 °C 7.7 °C 1016.8 hPa NNW 0.3 km/h 1.9 km/h 41 % 0 mm
18:34 21.2 °C 7.7 °C 1016.8 hPa NNW 0.8 km/h 1.9 km/h 42 % 0 mm
18:39 20.6 °C 7.9 °C 1016.8 hPa North 1.3 km/h 1.9 km/h 44 % 0 mm
18:44 20.1 °C 8.1 °C 1017.2 hPa NNW 1.3 km/h 3.7 km/h 46 % 0 mm
18:49 19.7 °C 8.1 °C 1017.2 hPa NNW 0.6 km/h 3.2 km/h 47 % 0 mm
18:54 19.1 °C 8.2 °C 1017.2 hPa NNW 2.6 km/h 5.6 km/h 49 % 0 mm
18:59 18.6 °C 8.3 °C 1017.2 hPa NNW 4.2 km/h 5.6 km/h 51 % 0 mm
19:04 18.4 °C 8.1 °C 1017.2 hPa North 1.8 km/h 3.7 km/h 51 % 0 mm
19:09 18.2 °C 8.2 °C 1017.2 hPa NNW 2.7 km/h 3.7 km/h 52 % 0 mm
19:14 18.1 °C 7.8 °C 1017.2 hPa NNW 1.4 km/h 3.7 km/h 51 % 0 mm
19:19 18 °C 8 °C 1017.5 hPa NNW 2.4 km/h 3.7 km/h 52 % 0 mm
19:24 17.8 °C 8.1 °C 1017.5 hPa NNW 3.2 km/h 5.6 km/h 53 % 0 mm
19:29 17.6 °C 7.9 °C 1017.5 hPa NNW 1.9 km/h 3.7 km/h 53 % 0 mm
19:34 17.6 °C 7.9 °C 1017.5 hPa Calm   1.9 km/h 53 % 0 mm
19:39 17.4 °C 7.8 °C 1017.5 hPa Calm     53 % 0 mm
19:44 17.2 °C 7.8 °C 1017.5 hPa NNW 2.4 km/h 3.7 km/h 54 % 0 mm
19:49 16.9 °C 7.6 °C 1017.5 hPa NNW 0.3 km/h 3.7 km/h 54 % 0 mm
19:54 16.8 °C 7.7 °C 1017.5 hPa Calm     55 % 0 mm
19:59 16.6 °C 7.7 °C 1017.5 hPa Calm     56 % 0 mm
20:04 16.2 °C 7.7 °C 1017.5 hPa Calm     57 % 0 mm
20:09 15.9 °C 7.7 °C 1017.8 hPa Calm     58 % 0 mm
20:14 15.7 °C 7.7 °C 1017.5 hPa Calm     59 % 0 mm
20:19 15.4 °C 7.7 °C 1017.5 hPa Calm     60 % 0 mm
20:24 15.2 °C 7.7 °C 1017.5 hPa Calm     61 % 0 mm
20:29 15.1 °C 7.6 °C 1017.5 hPa Calm     61 % 0 mm
20:34 14.8 °C 7.6 °C 1017.5 hPa Calm   1.9 km/h 62 % 0 mm
20:39 14.6 °C 7.7 °C 1017.5 hPa Calm     63 % 0 mm
20:44 14.4 °C 7.7 °C 1017.5 hPa Calm     64 % 0 mm
20:49 14.4 °C 7.7 °C 1017.5 hPa Calm     64 % 0 mm
20:54 14.3 °C 7.8 °C 1017.8 hPa Calm     65 % 0 mm
20:59 14.3 °C 7.8 °C 1017.5 hPa NNW 2.1 km/h 3.7 km/h 65 % 0 mm
21:04 14.3 °C 7.8 °C 1017.5 hPa NNW 0.6 km/h 1.9 km/h 65 % 0 mm
21:09 14.2 °C 7.5 °C 1017.5 hPa Calm     64 % 0 mm
21:14 14 °C 7.3 °C 1017.5 hPa Calm     64 % 0 mm
21:19 13.8 °C 7.4 °C 1017.5 hPa Calm     65 % 0 mm
21:24 13.7 °C 7.7 °C 1017.8 hPa Calm     67 % 0 mm
21:29 13.6 °C 7.4 °C 1017.5 hPa Calm     66 % 0 mm
21:34 13.5 °C 7.3 °C 1017.5 hPa Calm     66 % 0 mm
21:39 13.3 °C 7.3 °C 1017.5 hPa Calm     67 % 0 mm
21:44 13.2 °C 7.2 °C 1017.8 hPa Calm     67 % 0 mm
21:49 13.1 °C 7.3 °C 1017.8 hPa Calm     68 % 0 mm
21:54 13 °C 7.4 °C 1017.8 hPa Calm     69 % 0 mm
21:59 13 °C 7.4 °C 1017.8 hPa Calm     69 % 0 mm
22:04 12.9 °C 7.4 °C 1017.8 hPa Calm     69 % 0 mm
22:09 12.8 °C 7.3 °C 1017.8 hPa Calm     69 % 0 mm
22:14 12.7 °C 7.1 °C 1017.8 hPa Calm     69 % 0 mm
22:19 12.6 °C 7.3 °C 1017.8 hPa Calm     70 % 0 mm
22:24 12.5 °C 6.9 °C 1017.8 hPa Calm     69 % 0 mm
22:29 12.3 °C 7 °C 1017.8 hPa Calm     70 % 0 mm
22:34 12.2 °C 6.9 °C 1017.8 hPa Calm     70 % 0 mm
22:39 12.2 °C 6.8 °C 1017.8 hPa Calm     70 % 0 mm
22:44 12.1 °C 6.8 °C 1017.8 hPa Calm     70 % 0 mm
22:49 11.9 °C 6.8 °C 1017.8 hPa Calm     71 % 0 mm
22:54 11.8 °C 6.7 °C 1017.8 hPa Calm     71 % 0 mm
22:59 11.6 °C 6.5 °C 1017.8 hPa Calm     71 % 0 mm
23:04 11.4 °C 6.3 °C 1017.8 hPa Calm     71 % 0 mm
23:09 11.2 °C 6.2 °C 1017.8 hPa Calm     71 % 0 mm
23:14 11.1 °C 6.3 °C 1017.8 hPa Calm     72 % 0 mm
23:19 11 °C 6.3 °C 1017.5 hPa Calm     73 % 0 mm
23:24 10.9 °C 6.5 °C 1017.5 hPa Calm     74 % 0 mm
23:29 10.9 °C 6.5 °C 1017.5 hPa Calm     74 % 0 mm
23:34 10.9 °C 6.5 °C 1017.5 hPa Calm     74 % 0 mm
23:39 10.9 °C 6.7 °C 1017.5 hPa Calm     75 % 0 mm
23:44 10.9 °C 6.5 °C 1017.2 hPa Calm     74 % 0 mm
23:49 10.8 °C 6.4 °C 1017.2 hPa Calm     74 % 0 mm
23:54 10.7 °C 6.4 °C 1017.2 hPa Calm     75 % 0 mm
23:59 10.7 °C 6.4 °C 1017.2 hPa Calm     75 % 0 mm
Ararat Weather
Compliments of Weather Underground - 2.25 mb
Click here to send mail.


ABOUT

Live weather data from Ararat, Victoria, Australia, 3377
Data uploaded from Cumulus every 5 minutes to Weather Underground.
This site then downloads the raw data for formatting and display.
Metric and imperial data can be displayed. Graphs and historical data available.
Includes Sun and Moon times and rain image live from BOM.

Check out Ararat Weather on Facebook, Twitter and Google +

Help support ongoing costs by checking out the ads





Follow @AraratWeather